sat.trackr.live / text

‹ back to catalog

STARLINK-30967

NORAD 58416 · 2023-180Q

PAYLOAD ACTIVE UNKNOWN

§ Identity

Operator
Country
US
Launch date
2023-11-22
Launch site
AFETR
Launch vehicle
Mass (kg)
RCS (m²)

Purposes: comms

External: N2YO · Heavens-Above · Gunter

§ Orbital elements

Epoch: 2026-05-24T20:24:04.009824Z

Period
94.27 min
Inclination
43.0019°
Eccentricity
0.0001408
Mean motion
15.27573902 rev/d
Perigee alt
482.1 km
Apogee alt
484.0 km
Semi-major
6,861.2 km
B*
1.1497e-4
RAAN
342.4330°
Arg perigee
267.7210°
Mean anomaly
92.3481°
Rev number
13,927

§ Raw data

STARLINK-309671 58416U 23180Q   26144.85004641  .00002902  00000+0  11497-3 0  99902 58416  43.0019 342.4330 0001408 267.7210  92.3481 15.27573902139270

JSON: /api/v1/satellites/58416 · /tle

For live sub-satellite position, see the globe view (requires WebGL).

§ Visibility from observer

Set your observer location to see the next 7 days of passes ≥ 10°. The values pass through the URL so the page stays shareable.

No JS? Fill the form by hand. The geolocation button needs JavaScript.